Flag Weather past 2 weeks in Ankara, Turkey

Now
39 °F

Partly cloudy.


Feels Like: 34 °F
Forecast: 35 / 44 °F
Wind: 7 mph from East

Location: Ankara / Esenboga

Current Time: Nov 24, 2014 at 5:22:51 PM

Latest Report: Nov 24, 2014 at 4:50 PM


Visibility: N/A

Pressure: 30.09 "Hg

Humidity: 65%

Dew point: 28 °F

Location of AnkaraLocation

Historic Weather in Ankara — Graph

°F

Ankara temperature yesterday

Maximum temperature yesterday: 48 °F (at 10:50 AM)
Minimum temperature yesterday: 36 °F (at 7:20 PM)
Average temperature yesterday: 41 °F

Past Weeks' High & Low Weather Summary

 TemperatureHumidityPressure
High64 °F (Nov 11, 2:20 PM)100% (Nov 11, 3:50 AM)30.27 "Hg (Nov 11, 3:50 AM)
Low32 °F (Nov 12, 6:20 AM)32% (Nov 10, 11:50 AM)29.89 "Hg (Nov 21, 12:20 PM)
Average46 °F75%30.09 "Hg
* Reported Nov 9 3:20 PM — Nov 24 3:50 PM, Ankara, Weather by CustomWeather, © 2014

Note: Actual official high and low records may vary slightly from our data, if they occured in-between our weather recording intervals... More about our weather records

Advertising

Ankara weather history for previous 24 hours

 ConditionsComfort  
Time TempWeatherWind HumidityBarometerVisibility
3:50 PM
Nov 24
39 °FBroken clouds.8 mph65%30.09 "HgN/A
3:20 PM41 °FBroken clouds.3 mph61%30.09 "HgN/A
2:50 PM41 °FBroken clouds.5 mph61%30.09 "HgN/A
2:20 PM41 °FBroken clouds.6 mph61%30.09 "HgN/A
1:50 PM41 °FBroken clouds.6 mph61%30.09 "HgN/A
1:20 PM41 °FScattered clouds.9 mph57%30.09 "HgN/A
12:50 PM41 °FScattered clouds.9 mph57%30.09 "HgN/A
12:20 PM41 °FScattered clouds.9 mph53%30.09 "HgN/A
11:50 AM43 °FScattered clouds.6 mph49%30.12 "HgN/A
11:20 AM41 °FScattered clouds.7 mph53%30.12 "HgN/A
10:50 AM41 °FScattered clouds.7 mph53%30.12 "HgN/A
10:20 AM41 °FScattered clouds.7 mph53%30.15 "HgN/A
9:50 AM41 °FScattered clouds.6 mph57%30.15 "HgN/A
9:20 AM39 °FScattered clouds.6 mph56%30.15 "HgN/A
8:50 AM39 °FScattered clouds.7 mph61%30.15 "HgN/A
8:20 AM37 °FScattered clouds.5 mph70%30.15 "HgN/A
7:50 AM36 °FScattered clouds.6 mph81%30.15 "HgN/A
7:20 AM36 °FScattered clouds.7 mph75%30.15 "HgN/A
6:50 AM36 °FScattered clouds.8 mph75%30.15 "HgN/A
6:20 AM36 °FPassing clouds.8 mph75%30.15 "HgN/A
5:50 AM36 °FPassing clouds.7 mph81%30.12 "HgN/A
5:20 AM36 °FPassing clouds.6 mph81%30.12 "HgN/A
4:50 AM37 °FPassing clouds.2 mph75%30.12 "HgN/A
4:20 AM37 °FPassing clouds.8 mph75%30.12 "HgN/A
3:50 AM37 °FPassing clouds.9 mph75%30.12 "HgN/A
3:20 AM37 °FPassing clouds.6 mph81%30.12 "HgN/A
2:50 AM37 °FPassing clouds.6 mph81%30.12 "HgN/A
2:20 AM37 °FPassing clouds.7 mph87%30.12 "HgN/A
1:20 AM37 °FPassing clouds.6 mph87%30.12 "HgN/A
12:50 AM39 °FPassing clouds.7 mph81%30.12 "HgN/A
12:20 AM39 °FPassing clouds.9 mph81%30.12 "HgN/A
11:50 PM
Nov 23
39 °FPassing clouds.10 mph81%30.12 "HgN/A
11:20 PM39 °FPassing clouds.9 mph75%30.12 "HgN/A
10:50 PM39 °FPassing clouds.7 mph75%30.12 "HgN/A
10:20 PM37 °FPassing clouds.6 mph81%30.15 "HgN/A
9:50 PM37 °FPassing clouds.3 mph81%30.12 "HgN/A
9:20 PM37 °FPassing clouds.2 mph75%30.15 "HgN/A
8:50 PM36 °FPassing clouds.2 mph81%30.15 "HgN/A
8:20 PM37 °FPassing clouds.3 mph75%30.15 "HgN/A
7:50 PM36 °FPassing clouds.3 mph75%30.12 "HgN/A
7:20 PM36 °FPassing clouds.5 mph81%30.12 "HgN/A
6:50 PM37 °FPassing clouds.5 mph75%30.12 "HgN/A
6:20 PM37 °FPartly cloudy.5 mph70%30.12 "HgN/A
5:50 PM39 °FPartly cloudy.5 mph65%30.12 "HgN/A
5:20 PM39 °FPartly cloudy.7 mph70%30.12 "HgN/A
Weather by CustomWeather, © 2014

See weather overviewHow to use our weather pages